TimeMST,TemperatureF,Dew PointF,Humidity,Sea Level PressureIn,VisibilityMPH,Wind Direction,Wind SpeedMPH,Gust SpeedMPH,PrecipitationIn,Events,Conditions,WindDirDegrees,DateUTC
5:00 AM,21,17,76,29.93,15,ESE,8.1,,,,Overcast,110,2012-12-04 12:00:00
5:00 AM,21.2,15.8,80,29.93,15.0,ESE,6.9,-,N/A,,Overcast,120,2012-12-04 12:00:00
6:00 AM,23.0,17.6,80,29.89,15.0,SE,8.1,-,N/A,,Overcast,140,2012-12-04 13:00:00
7:00 AM,26.6,19.4,74,29.85,15.0,SE,10.4,-,N/A,,Overcast,130,2012-12-04 14:00:00
8:00 AM,26.6,21.2,80,29.83,20.0,SSE,9.2,-,N/A,,Mostly Cloudy,150,2012-12-04 15:00:00
9:00 AM,30.2,24.8,80,29.78,30.0,SSE,15.0,-,N/A,,Mostly Cloudy,150,2012-12-04 16:00:00
10:00 AM,28.4,24.8,86,29.76,30.0,SSE,10.4,-,N/A,,Mostly Cloudy,150,2012-12-04 17:00:00
11:00 AM,36,26,55,29.69,28,South,20.7,,,,Partly Cloudy,170,2012-12-04 18:00:00
11:00 AM,35.6,24.8,65,29.68,30.0,South,19.6,26.5,N/A,,Scattered Clouds,170,2012-12-04 18:00:00
12:00 PM,37.4,26.6,65,29.64,30.0,SSE,13.8,-,N/A,,Partly Cloudy,160,2012-12-04 19:00:00
1:00 PM,39.2,26.6,61,29.60,30.0,SSE,13.8,20.7,N/A,,Scattered Clouds,160,2012-12-04 20:00:00
2:00 PM,42.8,24.8,49,29.59,30.0,South,5.8,-,N/A,,Mostly Cloudy,180,2012-12-04 21:00:00
3:00 PM,44.6,24.8,46,29.57,30.0,WSW,17.3,-,N/A,,Scattered Clouds,240,2012-12-04 22:00:00
4:00 PM,39.2,24.8,56,29.58,30.0,SW,13.8,-,N/A,,Scattered Clouds,230,2012-12-04 23:00:00
5:00 PM,35,22,48,29.62,19,SW,10.4,,,,Scattered Clouds,220,2012-12-05 00:00:00
5:00 PM,33.8,23.0,65,29.62,20.0,SW,10.4,-,N/A,,Scattered Clouds,220,2012-12-05 00:00:00
6:00 PM,37.4,23.0,56,29.60,15.0,South,5.8,-,N/A,,Partly Cloudy,190,2012-12-05 01:00:00
7:00 PM,33.8,23.0,65,29.59,15.0,WSW,13.8,-,N/A,,Clear,240,2012-12-05 02:00:00
8:00 PM,37.4,23.0,56,29.57,15.0,WSW,18.4,-,N/A,,Clear,240,2012-12-05 03:00:00
9:00 PM,39.2,26.6,61,29.57,15.0,SW,17.3,-,N/A,,Partly Cloudy,230,2012-12-05 04:00:00
9:30 PM,35.6,26.6,70,29.58,15.0,SW,11.5,-,N/A,,Partly Cloudy,220,2012-12-05 04:30:00
10:00 PM,33.8,24.8,70,29.45,15.0,SSW,9.2,-,N/A,,Partly Cloudy,210,2012-12-05 05:00:00